Overview Statistics Trail Chart Weather Telemetry Raw packets
 

This is the latest recevied weather packets stored in our database for station/object W5CDN. If no packets are shown the sender has not sent any weather packets the latest 10 day(s).

<< 4 5 6 7 8 9 10 >>
Time Temp. Humidity Pressure Rain* Wind** Luminosity Snow
1788394136 27.22° C 78% 1012.2 hPa 0 mm - - -
1788393836 27.78° C 78% 1011.9 hPa 0 mm - - -
1788393536 27.78° C 77% 1012 hPa 0 mm - - -
1788393236 27.78° C 77% 1012 hPa 0 mm - - -
1788392936 27.78° C 76% 1012.2 hPa 0 mm - - -
1788392636 27.78° C 77% 1011.8 hPa 0 mm - - -
1788392336 27.78° C 77% 1012.3 hPa 0 mm - - -
1788392036 28.33° C 75% 1012 hPa 0 mm - - -
1788391736 27.78° C 75% 1012.3 hPa 0 mm - - -
1788391436 28.89° C 73% 1012.1 hPa 0 mm - - -
1788391136 28.33° C 74% 1012 hPa 0 mm - - -
1788390836 28.33° C 74% 1011.9 hPa 0 mm - - -
1788390536 28.33° C 75% 1012 hPa 0 mm - - -
1788390236 28.33° C 76% 1011.9 hPa 0 mm - - -
1788389936 28.89° C 75% 1012 hPa 0 mm - - -
1788389636 28.33° C 73% 1011.7 hPa 0 mm - - -
1788389336 28.89° C 72% 1011.6 hPa 0 mm - - -
1788389036 28.89° C 71% 1011.6 hPa 0 mm - - -
1788388736 29.44° C 69% 1011.6 hPa 0 mm - - -
1788388436 30° C 68% 1011.6 hPa 0 mm - - -
1788388136 30.56° C 66% 1011.5 hPa 0 mm - - -
1788387836 30° C 66% 1011.5 hPa 0 mm - - -
1788387536 30.56° C 66% 1011.5 hPa 0 mm - - -
1788387236 30.56° C 66% 1011.7 hPa 0 mm - - -
1788386936 30.56° C 66% 1011.6 hPa 0 mm - - -

* Rain latest hour (hover to see other rain measurements)
** Current wind speed in m/s (hover to see current wind gust speed)